This is the latest recevied weather packets stored in our database for station/object W6SNO-1. If no packets are shown the sender has not sent any weather packets the latest 10 day(s).
| Time | Temp. | Humidity | Pressure | Rain* | Wind** | Luminosity | Snow |
|---|---|---|---|---|---|---|---|
| 1777818231 | 12.78° C | 82% | 1012.4 hPa | 0 mm | - | 57 W/m² | - |
| 1777817927 | 12.22° C | 82% | 1012.5 hPa | 0 mm | - | 32 W/m² | - |
| 1777817625 | 12.22° C | 82% | 1012.3 hPa | 0 mm | - | 32 W/m² | - |
| 1777817321 | 12.22° C | 83% | 1012.2 hPa | 0 mm | - | 14 W/m² | - |
| 1777817018 | 12.22° C | 83% | 1011.9 hPa | 0 mm | - | 14 W/m² | - |
| 1777816714 | 12.22° C | 83% | 1012 hPa | 0 mm | - | 11 W/m² | - |
| 1777816412 | 12.22° C | 85% | 1012 hPa | 0 mm | - | 11 W/m² | - |
| 1777816110 | 12.22° C | 85% | 1012.2 hPa | 0 mm | - | 10 W/m² | - |
| 1777815807 | 11.67° C | 85% | 1012.1 hPa | 0 mm | - | 6 W/m² | - |
| 1777815504 | 11.67° C | 86% | 1011.8 hPa | 0 mm | - | 5 W/m² | - |
| 1777815202 | 12.22° C | 87% | 1011.9 hPa | 0 mm | - | 4 W/m² | - |
| 1777814898 | 11.67° C | 87% | 1011.7 hPa | 0 mm | - | 2 W/m² | - |
| 1777814594 | 11.67° C | 87% | 1011.9 hPa | 0 mm | - | 2 W/m² | - |
| 1777814292 | 11.67° C | 87% | 1011.8 hPa | 0 mm | - | 1 W/m² | - |
| 1777813988 | 11.67° C | 87% | 1011.5 hPa | 0 mm | - | 1 W/m² | - |
| 1777813685 | 11.67° C | 87% | 1011.5 hPa | 0 mm | - | 1 W/m² | - |
| 1777813383 | 11.67° C | 87% | 1011.6 hPa | 0 mm | - | 0 W/m² | - |
| 1777813080 | 11.67° C | 87% | 1011.5 hPa | 0 mm | - | 0 W/m² | - |
| 1777812778 | 11.67° C | 87% | 1011.4 hPa | 0 mm | - | 0 W/m² | - |
| 1777812474 | 11.67° C | 87% | 1011.4 hPa | 0 mm | - | 0 W/m² | - |
| 1777812172 | 11.67° C | 86% | 1011.4 hPa | 0 mm | - | 0 W/m² | - |
| 1777811870 | 11.67° C | 86% | 1011.1 hPa | 0 mm | - | 0 W/m² | - |
| 1777811264 | 11.67° C | 86% | 1011.3 hPa | 0 mm | - | 0 W/m² | - |
| 1777810961 | 11.67° C | 86% | 1011.3 hPa | 0 mm | - | 0 W/m² | - |
| 1777810657 | 11.67° C | 86% | 1011.3 hPa | 0 mm | - | 0 W/m² | - |
* Rain latest hour (hover to see other rain measurements)
** Current wind speed in m/s (hover to see current wind gust speed)